[Date Prev][Date Next][Thread Prev][Thread Next] - [Date Index][Thread Index][Author Index]

2 Line ISS Keps 1-7



ISS
1 25544U 98067A   02007.16008102  .00064998  00000-0  71915-3 0  9281
2 25544  51.6386 142.2014 0002322  77.0013 284.5080 15.62388965178918


----
Via the sarex mailing list at AMSAT.ORG courtesy of AMSAT-NA.
To unsubscribe, send "unsubscribe sarex" to Majordomo@amsat.org



AMSAT Top AMSAT Home